Theta_e
317 319 318 322 334 338 337 335 333 337 340 341 343 345 345 344 345 346 347 345 344 343 343 343 343 341 341 340 341 341 339 340 340 339 339 339 340 340 339 339 337 337 336 335 333 328 330 336 337 338 337 334 332 329 330 332 331 332 337 337 332 330 326 323 328 333 334 335 336 336 335 334 333 332 330 330 332 334 333 332 334 335 334 334 333
316 319 318 320 332 337 336 335 332 337 344 346 347 348 346 344 344 346 347 346 344 342 342 343 343 341 341 341 341 341 340 340 340 339 339 339 339 339 338 339 338 337 336 335 334 330 331 337 337 337 337 334 332 329 328 331 335 336 336 336 332 333 334 327 325 333 335 334 335 336 336 335 333 331 330 330 330 333 334 332 334 336 335 335 333
316 319 319 320 333 339 337 337 336 341 347 349 348 348 346 344 344 345 347 346 344 343 342 343 343 341 341 341 341 341 340 340 341 340 339 339 338 338 338 339 338 337 335 335 335 331 331 337 338 336 335 333 332 334 331 329 335 339 336 335 334 335 338 334 328 331 334 334 335 337 337 336 335 333 331 330 329 333 335 334 335 336 335 334 333
316 319 319 320 334 342 341 343 344 346 348 348 348 348 347 345 344 345 346 346 344 343 342 343 343 342 342 342 341 342 340 339 340 339 339 339 338 338 338 339 338 337 336 335 336 333 332 337 338 336 333 332 333 334 333 330 333 339 338 337 337 337 338 336 333 332 332 334 336 337 337 336 337 335 334 331 329 332 334 334 335 335 334 334 333
316 318 318 320 333 343 342 344 347 348 348 348 348 347 346 345 344 345 346 346 345 343 343 344 344 343 343 342 342 342 341 339 339 339 339 339 339 338 338 338 337 336 336 335 336 334 332 335 339 337 332 331 334 335 334 333 334 336 338 338 338 338 337 335 334 334 332 334 336 337 336 335 336 336 335 334 330 330 332 332 333 334 334 334 333
316 318 318 321 335 344 341 341 345 347 348 347 347 347 346 345 344 345 346 346 345 344 344 344 343 343 343 343 342 341 339 338 339 340 339 339 339 339 338 337 336 336 336 335 336 336 333 334 337 337 333 330 334 336 335 336 337 337 337 337 336 336 337 335 335 335 334 334 335 336 336 335 335 335 335 335 333 331 331 331 332 332 333 333 333
316 318 318 318 333 344 343 342 344 345 347 347 347 347 346 345 346 346 345 346 346 345 345 344 344 343 343 342 341 340 339 338 339 340 339 339 339 339 338 337 335 336 337 336 337 337 333 332 335 337 336 333 333 335 335 336 337 337 337 337 335 335 336 336 336 336 336 335 333 333 334 334 335 335 334 334 335 334 332 330 330 331 332 332 333
316 318 320 318 330 343 343 344 346 345 347 347 347 347 346 345 346 346 345 346 346 346 345 344 343 342 342 341 340 340 340 338 339 340 339 339 339 338 337 336 336 336 337 338 337 337 334 332 335 339 339 336 333 333 335 337 337 336 336 337 336 335 335 335 336 336 336 336 334 332 332 332 333 333 332 333 334 334 334 332 330 330 330 331 332
316 317 321 317 327 339 336 336 343 346 346 346 346 347 346 345 346 346 346 346 346 346 345 343 342 341 341 341 340 340 341 340 339 340 340 340 339 338 337 336 336 336 338 338 338 337 335 333 336 339 339 338 336 334 335 336 338 336 335 336 336 336 335 335 335 335 335 336 335 334 332 331 332 332 330 330 333 334 334 334 332 330 329 330 330
315 317 320 318 328 338 331 329 341 346 346 346 346 346 346 346 347 347 346 346 346 346 344 343 341 341 342 342 340 339 341 341 339 340 340 340 339 338 337 336 336 337 338 338 337 338 337 336 337 338 338 339 339 338 338 337 337 337 335 334 335 336 336 335 335 335 335 334 335 335 334 333 332 331 328 328 330 332 332 334 334 332 331 330 329
316 316 318 318 329 338 333 333 342 346 345 345 345 345 345 347 347 346 346 346 346 345 343 342 341 341 341 342 341 339 341 341 340 340 340 340 339 338 337 336 336 338 338 336 336 339 340 337 338 338 337 338 340 340 340 339 338 337 335 335 335 334 334 334 335 335 335 334 335 336 335 333 332 330 328 328 330 331 331 332 333 332 332 330 329
315 316 319 318 328 339 336 333 340 344 343 343 344 344 345 347 347 346 346 345 345 344 342 341 341 342 341 341 339 338 341 342 341 341 340 339 339 337 337 337 337 338 337 335 335 339 341 338 338 339 338 338 339 339 339 339 339 338 336 335 333 332 330 330 333 334 334 334 335 335 335 333 333 332 331 331 333 332 332 332 332 331 332 331 329
315 316 319 317 326 340 339 333 339 343 342 341 343 344 345 346 346 346 346 345 344 343 342 341 341 342 340 338 338 338 341 343 341 341 340 339 339 337 337 338 337 337 336 334 332 336 340 339 337 338 338 339 339 339 339 339 339 338 337 335 332 330 328 328 331 332 333 333 332 333 334 332 332 333 334 333 333 333 332 332 331 331 331 331 330
315 316 319 318 326 341 341 338 342 344 342 342 343 344 345 346 346 345 345 344 343 342 341 341 340 340 339 337 339 340 341 342 341 341 340 340 339 338 338 338 337 336 334 333 329 331 339 340 336 336 339 340 340 339 340 339 339 338 337 336 333 330 329 329 330 331 332 333 331 331 332 331 328 329 332 333 333 333 331 330 330 330 330 330 329
315 317 318 319 327 339 341 341 344 344 342 343 344 344 345 345 345 345 345 344 343 342 341 341 340 339 339 339 340 341 341 341 341 342 341 340 340 339 338 338 338 337 334 332 329 330 338 339 336 337 339 340 340 340 340 340 339 339 337 337 335 333 332 330 329 330 332 333 332 331 331 330 326 327 331 331 332 334 331 328 331 331 330 329 328
314 317 319 319 325 336 340 342 344 343 341 342 344 345 345 345 344 345 345 344 344 343 341 341 341 340 340 341 341 341 342 342 342 342 341 340 339 339 339 338 338 338 334 333 333 333 336 337 337 339 339 340 341 340 340 340 339 338 338 337 336 335 334 331 329 330 332 333 332 332 331 329 327 330 333 329 330 333 331 328 330 330 330 329 327
314 316 319 319 323 334 339 340 341 341 339 340 343 345 344 344 345 345 345 345 344 343 341 342 342 341 341 341 342 342 343 342 342 341 339 339 339 339 340 338 337 337 335 334 337 337 335 337 339 340 340 340 341 341 341 340 339 339 338 337 336 336 335 333 331 330 331 331 331 332 332 331 331 333 333 328 330 334 330 328 330 330 330 329 327
316 316 319 320 322 330 337 339 339 339 339 339 342 344 344 344 345 345 346 345 345 343 341 342 342 341 341 342 342 343 342 341 340 337 336 339 340 340 339 338 338 340 339 338 339 340 339 340 341 341 341 341 341 341 341 341 340 340 339 338 337 337 337 336 334 333 332 332 332 332 332 332 332 334 332 327 329 333 330 328 330 330 330 329 328
316 317 319 321 321 325 334 338 338 338 339 339 341 344 345 345 344 345 346 345 345 344 341 341 342 342 342 343 343 342 342 341 337 332 335 338 339 339 339 340 342 343 343 342 342 342 342 342 342 342 341 341 341 342 341 341 340 339 338 338 337 337 338 338 337 336 335 334 333 333 333 332 332 333 330 326 329 332 330 329 330 329 329 329 329
316 318 319 321 322 323 330 337 336 336 339 339 342 344 345 344 343 344 345 345 345 344 341 341 343 344 344 344 344 342 341 339 334 333 337 339 340 341 342 343 344 343 344 343 342 342 341 340 340 341 341 340 340 340 339 338 338 336 336 336 335 336 336 337 337 337 335 334 334 334 333 332 331 331 330 328 330 332 331 330 330 328 328 329 328
317 318 320 321 321 322 330 336 333 335 340 342 343 344 343 343 344 345 345 346 345 343 342 342 343 344 344 344 344 341 339 338 335 335 338 339 341 343 343 343 342 342 343 342 340 341 340 339 339 340 340 340 339 338 337 336 336 335 335 334 334 334 335 336 336 337 336 334 333 333 331 329 330 330 329 329 331 332 331 331 330 328 328 328 328
318 318 320 321 321 324 332 338 336 337 342 344 343 343 343 344 346 346 346 346 344 343 342 343 343 343 344 345 343 340 338 337 335 336 338 339 341 342 342 342 341 342 343 342 341 341 340 340 341 341 340 339 338 338 337 336 336 336 336 335 335 335 336 337 336 336 337 335 333 333 333 332 331 331 330 331 332 332 331 331 331 329 327 326 326
319 319 320 321 322 325 334 340 339 340 344 344 343 344 344 345 347 346 346 346 345 343 343 343 344 344 345 345 342 340 339 337 337 339 338 338 339 341 341 341 341 341 342 342 342 341 342 342 342 341 340 339 338 338 338 337 337 337 337 337 337 337 337 337 336 336 337 335 334 334 334 334 333 332 332 332 332 331 331 330 330 328 326 324 322
320 320 320 323 325 329 336 339 339 342 345 346 345 346 345 347 348 346 345 347 345 343 343 344 344 344 345 344 340 340 341 338 339 340 338 338 339 340 340 340 341 342 342 341 341 342 342 342 342 341 340 339 339 339 339 338 338 338 338 337 337 338 338 337 336 336 336 335 334 334 334 333 332 332 332 333 332 331 330 329 327 326 324 323 322
320 320 324 328 330 334 338 341 342 344 347 346 345 347 347 347 347 345 345 346 345 344 344 345 345 344 345 343 340 341 341 339 339 339 338 338 339 339 339 339 341 342 341 340 341 341 342 342 342 341 340 340 340 339 339 338 338 338 338 337 338 338 338 337 337 336 335 334 334 334 333 333 333 332 332 332 330 329 328 327 325 325 324 323 323
320 326 332 333 333 335 339 343 344 344 345 344 342 344 345 345 345 345 346 346 344 345 345 346 346 343 343 343 342 342 342 340 339 339 338 337 337 339 339 339 340 341 340 340 340 341 342 342 342 341 340 340 340 339 338 338 338 338 337 337 337 337 337 337 337 336 335 334 334 334 333 332 332 331 330 329 328 327 327 325 324 324 323 322 322
327 335 337 335 335 338 342 346 346 344 343 342 340 342 344 344 342 343 345 346 345 345 347 348 345 340 339 342 343 342 342 341 339 339 338 336 335 337 337 337 338 338 340 342 341 341 341 341 341 340 339 340 339 339 338 338 338 338 337 336 336 336 336 336 336 336 335 334 333 333 332 331 331 330 329 328 326 326 326 324 323 322 320 319 319
338 339 337 338 341 344 346 347 345 343 343 343 341 343 345 341 338 340 344 347 346 346 348 348 343 336 337 342 343 342 341 341 340 340 339 336 333 334 335 336 338 339 341 342 341 340 340 340 340 340 339 339 339 339 338 337 337 337 336 336 335 335 335 335 336 335 334 334 332 331 331 329 329 329 328 327 326 326 324 322 319 317 315 315 313
341 342 340 341 344 345 345 344 341 339 342 344 344 345 344 338 335 340 343 345 347 347 348 345 339 336 339 342 343 342 342 342 341 341 340 337 335 336 336 337 339 340 341 341 341 340 339 339 339 340 339 338 338 338 338 337 337 336 335 335 334 334 334 334 334 333 333 332 331 330 330 328 327 327 327 327 325 324 321 318 315 313 311 311 309
338 343 343 342 344 345 343 342 341 340 342 344 344 344 341 334 331 337 341 343 346 347 347 343 337 337 341 342 342 343 343 343 342 342 341 338 337 337 337 337 340 342 342 341 341 340 339 338 339 339 339 338 338 338 338 337 337 336 335 334 334 333 331 331 331 332 331 330 330 330 329 327 326 326 325 323 321 319 317 315 313 311 309 309 309
338 343 344 343 343 344 342 341 342 342 342 343 341 339 336 330 330 336 341 344 346 346 345 342 336 338 343 343 343 344 344 344 343 342 341 339 338 338 338 339 341 341 341 341 341 340 340 339 339 339 339 338 338 337 337 336 336 336 335 333 332 330 329 328 329 330 329 329 328 328 327 325 325 324 321 318 316 315 314 313 312 310 310 309 309
340 343 343 342 342 341 340 341 342 343 342 340 336 332 332 332 335 339 343 345 345 344 344 343 340 341 345 345 344 344 344 343 342 341 341 340 339 338 339 340 341 340 340 340 339 338 339 339 339 339 338 337 336 336 335 335 334 334 332 330 329 328 328 327 328 328 328 327 326 325 324 323 322 320 317 314 314 313 312 312 311 310 311 310 309
340 341 341 341 341 340 340 341 342 342 342 338 333 332 335 337 338 342 345 345 344 344 344 344 343 345 347 347 346 345 344 343 342 341 341 339 339 338 337 337 338 338 339 337 334 333 338 339 338 337 337 336 335 335 334 333 331 329 328 329 328 328 327 327 327 327 325 323 323 322 321 320 318 316 315 313 313 313 312 312 312 312 313 313 311
339 340 340 341 339 339 340 339 338 338 338 337 336 336 338 338 340 344 345 344 345 345 345 345 345 347 347 347 346 344 342 343 343 342 340 339 339 337 335 334 336 336 336 334 332 332 337 339 337 336 336 335 334 333 333 331 328 327 327 328 328 327 326 326 326 325 324 322 320 319 318 317 315 315 314 313 313 313 313 314 315 315 315 315 313
339 340 341 340 338 339 340 337 334 335 337 338 338 338 339 340 344 345 344 344 345 345 345 345 345 346 346 346 344 342 341 343 343 342 340 340 340 339 337 337 336 335 335 333 332 335 337 337 336 336 335 334 333 333 332 330 327 327 328 328 327 326 326 326 325 325 323 322 321 320 318 317 315 315 314 314 314 315 316 317 316 314 313 314 313
337 339 337 336 335 336 336 335 334 336 337 339 339 339 339 343 345 344 344 344 344 344 344 345 345 345 345 345 344 343 342 342 342 341 341 340 340 339 339 338 336 336 336 335 335 336 337 336 336 335 335 334 334 333 332 329 327 327 328 327 326 326 326 325 325 324 323 323 322 321 320 319 319 317 316 316 315 315 315 314 312 312 313 313 313
333 334 332 332 334 333 332 333 335 336 337 339 339 340 342 345 344 344 344 344 344 345 345 344 344 344 345 345 345 345 344 343 342 341 341 340 340 339 339 339 338 337 337 336 336 336 336 336 335 335 334 334 334 333 331 329 327 327 327 326 326 326 325 325 324 324 323 322 321 322 322 321 320 317 314 314 312 309 309 310 311 313 314 314 313
331 333 330 330 332 331 330 332 334 336 338 339 340 342 344 344 343 343 343 344 344 344 344 344 343 344 344 345 345 345 345 343 342 341 340 340 340 340 339 338 335 334 335 336 336 335 335 335 335 334 334 334 333 333 331 328 327 327 326 326 326 326 325 324 324 323 323 322 322 322 322 321 319 315 313 312 307 306 310 314 314 315 315 313 310
329 331 330 331 332 331 330 333 336 337 338 340 342 343 344 343 343 343 343 344 344 344 344 344 344 344 344 345 345 345 344 343 342 341 339 339 339 338 338 336 333 334 336 336 335 335 335 335 334 334 333 333 332 331 330 328 326 326 326 326 326 325 325 324 323 323 323 322 322 321 321 321 318 315 314 310 304 307 315 317 315 315 315 312 307
332 330 329 332 335 334 333 336 338 339 341 342 343 343 342 341 341 342 343 343 343 343 343 343 343 344 344 344 345 345 344 343 343 341 340 339 338 337 337 336 335 336 337 335 334 335 334 334 334 334 333 333 331 329 329 327 326 326 325 325 326 326 325 324 323 323 323 322 322 321 321 321 318 316 315 309 305 311 317 317 315 315 315 312 305
338 337 334 335 337 336 336 338 341 342 343 343 342 341 341 340 341 342 343 344 343 343 343 343 343 344 344 344 344 344 343 343 342 342 341 340 338 337 338 337 337 336 336 335 334 335 335 334 334 334 333 332 330 329 328 326 325 326 325 325 326 326 325 324 323 323 322 322 321 320 320 320 317 317 317 311 307 312 316 315 314 314 314 312 306
339 338 337 336 337 337 338 341 342 343 343 342 340 341 341 341 342 343 343 343 343 343 343 343 343 343 343 343 343 343 342 341 341 341 341 340 339 338 339 338 337 337 336 335 334 335 335 334 334 333 332 331 329 328 326 325 325 325 325 325 326 326 325 324 323 323 322 321 321 320 319 319 318 318 317 313 309 311 314 314 314 314 314 312 307
341 340 339 338 338 339 341 342 342 342 342 341 341 341 341 341 342 343 343 342 342 342 343 343 343 342 343 342 342 341 340 339 340 340 340 339 339 339 339 338 337 337 336 335 334 334 334 334 333 332 331 330 329 327 325 325 325 325 325 325 325 325 325 324 323 323 322 321 321 320 319 319 318 318 317 313 309 309 311 312 313 314 314 311 307
340 341 342 342 341 342 342 341 342 342 341 342 342 341 342 343 343 343 342 342 342 342 343 343 342 341 342 341 341 340 339 339 340 339 339 339 338 338 338 337 336 336 335 334 334 334 334 333 332 331 330 330 329 326 324 325 325 324 324 325 325 325 325 324 323 323 322 321 321 320 320 319 318 317 316 312 308 307 308 308 310 313 312 308 305
339 340 341 341 342 342 342 342 342 342 342 342 342 342 343 343 343 343 343 343 342 342 342 342 342 341 341 341 341 340 339 338 339 338 338 338 338 337 337 336 336 336 335 334 334 334 333 332 332 331 330 330 330 326 324 324 325 324 324 324 324 325 325 324 324 323 322 322 321 320 320 319 318 317 316 313 310 309 307 306 307 308 307 305 306
335 337 339 340 340 341 342 342 342 342 342 342 342 342 343 343 343 343 343 343 343 342 342 342 341 341 340 340 340 339 338 338 338 338 337 337 336 335 334 335 336 335 334 334 334 333 332 332 332 331 330 330 330 328 325 324 324 324 324 324 324 324 324 324 324 323 322 322 321 320 320 319 318 317 316 314 312 309 307 304 304 305 306 307 308
329 331 334 338 338 339 340 340 340 340 341 342 342 342 342 342 342 342 342 343 343 342 342 341 341 340 340 339 339 338 338 337 337 337 336 335 335 334 333 334 334 333 333 334 333 333 332 332 331 331 330 329 329 328 327 325 324 324 324 324 324 324 324 324 324 323 322 322 321 320 319 319 318 317 316 314 312 311 310 308 306 307 308 309 308
325 326 328 330 332 332 334 335 335 337 338 339 339 340 340 340 340 340 341 341 341 341 341 341 340 340 339 339 339 338 338 337 336 335 335 334 332 332 332 333 334 334 334 333 332 331 331 331 331 330 329 329 328 327 326 326 325 325 326 326 325 324 324 324 323 323 323 322 321 320 319 318 318 317 315 314 313 312 311 308 306 307 309 308 308
324 324 325 326 327 327 328 329 330 333 336 337 336 337 338 338 339 339 339 339 340 340 340 340 340 339 338 338 338 337 336 335 333 332 333 332 331 331 331 332 334 334 334 332 331 330 330 330 330 329 328 327 327 326 325 325 325 326 326 326 326 325 324 324 324 323 323 322 321 320 319 318 317 316 315 314 313 311 309 306 305 308 309 308 308
323 323 325 326 327 327 328 329 329 331 334 335 335 335 336 337 338 338 338 339 339 339 339 339 339 338 337 337 335 334 334 333 331 331 332 333 333 332 331 331 333 333 333 331 330 330 330 329 328 328 327 326 326 326 325 324 325 325 325 326 326 325 325 324 324 323 323 321 321 320 319 318 317 316 315 314 313 311 308 305 305 307 308 308 307
322 322 323 324 325 326 327 328 329 330 331 332 332 333 334 335 336 336 337 338 337 338 337 337 337 336 336 335 334 333 333 332 331 332 333 333 332 332 331 331 331 331 331 330 329 329 329 328 327 327 327 326 325 325 325 324 324 324 324 325 326 325 325 325 324 324 323 322 321 320 318 316 315 315 314 313 312 310 308 306 306 307 307 307 307
Wind_Speed
34 26 27 26 27 34 33 32 32 30 30 30 32 34 35 36 38 36 36 40 39 39 39 35 35 35 34 33 31 30 29 28 27 26 27 28 26 26 26 22 20 22 22 20 19 21 23 20 18 21 19 18 18 19 19 17 16 19 22 22 20 20 21 23 19 12 14 16 14 15 12 9 8 8 8 9 8 6 11 11 6 8 8 4 4
35 27 29 29 27 33 34 32 31 30 32 34 36 39 37 36 38 38 37 40 41 40 40 37 37 37 35 34 32 30 30 30 29 28 28 29 28 25 24 23 22 22 22 21 19 20 23 22 20 22 21 19 18 17 18 17 17 19 22 22 20 19 18 20 21 15 15 17 14 13 11 9 9 9 8 9 10 9 10 11 8 9 8 6 5
37 28 28 29 27 34 35 33 32 32 35 37 38 39 36 34 38 40 39 41 42 41 40 37 35 36 35 34 32 31 31 31 30 29 27 28 28 25 24 25 22 21 23 23 21 21 24 24 22 24 22 19 17 16 17 18 19 19 20 20 18 18 17 17 18 18 16 14 13 11 9 9 9 10 10 9 10 11 10 10 10 10 10 9 8
39 30 25 25 26 34 34 33 34 35 37 38 39 39 35 34 37 40 41 41 42 41 40 37 34 34 33 31 31 28 28 29 30 29 26 26 28 28 27 27 23 21 22 24 22 21 24 25 23 24 20 17 17 17 17 18 20 20 18 17 15 15 16 14 14 18 17 14 13 12 9 9 9 10 10 11 12 14 13 11 10 10 11 12 9
38 33 27 26 26 33 32 31 34 36 39 39 39 38 36 35 36 38 40 42 41 41 41 37 33 32 31 29 29 26 25 29 31 29 28 26 28 31 31 28 24 22 21 23 22 20 23 24 24 23 19 17 19 18 16 15 17 18 17 16 16 15 14 13 14 17 19 17 15 12 9 10 11 10 9 10 12 13 12 12 11 9 10 11 9
35 34 32 31 27 34 34 31 33 36 38 39 38 38 36 36 36 36 39 42 42 41 40 38 34 33 33 32 33 29 28 33 33 31 31 29 29 31 30 28 25 22 21 21 20 19 21 24 25 23 18 16 19 19 16 15 16 17 15 14 15 16 15 15 15 18 21 20 19 16 13 11 9 9 10 9 11 11 11 12 12 11 9 10 9
34 32 34 35 28 34 35 31 34 36 36 37 37 37 35 35 36 35 38 42 44 42 39 38 35 34 35 34 34 32 30 34 32 30 32 32 30 29 28 27 25 23 22 21 20 19 19 21 23 22 19 17 18 19 16 15 17 17 15 14 13 14 17 18 17 18 20 20 22 22 19 16 11 10 11 10 10 11 13 13 13 12 11 11 10
36 32 33 39 33 34 35 30 32 34 34 35 35 35 34 34 35 36 39 42 44 43 39 38 36 35 36 34 33 32 29 31 31 30 32 33 31 29 27 26 24 23 23 23 22 20 19 20 22 23 21 18 17 18 16 15 16 16 17 17 16 15 18 20 19 20 20 19 20 22 22 21 18 15 13 12 11 11 13 14 12 13 13 12 12
37 33 30 39 37 34 32 29 30 32 33 33 33 34 33 34 36 37 38 40 42 43 40 37 36 36 36 33 32 31 29 30 31 31 31 29 28 27 26 25 24 23 25 25 24 22 20 19 22 24 22 18 16 16 16 16 17 17 17 19 19 18 18 20 20 21 22 20 19 20 22 23 22 20 18 17 16 13 12 13 13 12 11 11 13
37 35 29 33 36 33 30 30 32 32 31 32 33 35 34 35 37 37 37 40 42 41 39 37 35 35 36 34 33 31 29 30 30 31 30 27 26 26 26 25 24 25 26 26 25 24 22 21 22 23 22 20 17 15 15 17 18 18 17 19 21 20 20 21 21 21 22 22 21 20 21 21 22 22 21 20 20 18 14 12 13 12 10 10 11
36 38 33 31 35 34 33 34 35 34 32 34 35 36 36 36 37 38 39 42 42 40 39 37 35 35 36 35 33 31 30 30 30 31 30 28 28 27 25 25 25 26 27 26 26 25 24 23 22 21 21 20 18 16 15 16 16 17 17 18 21 22 23 24 23 23 23 24 23 21 20 21 21 22 22 20 20 20 16 12 13 12 9 9 9
36 40 36 32 36 38 40 39 37 36 35 36 36 36 37 36 37 39 39 40 39 39 39 37 35 35 36 35 32 30 31 31 30 30 30 29 28 27 26 25 24 27 28 26 27 28 26 25 23 20 20 20 19 17 16 16 15 15 15 17 20 22 22 23 23 25 26 25 25 24 22 21 21 22 22 21 20 19 16 12 11 11 9 10 9
37 39 35 33 35 41 45 43 40 38 38 37 36 35 36 36 38 40 40 39 37 38 38 37 36 35 35 34 31 29 30 30 29 28 27 26 27 27 27 26 25 26 27 27 28 29 27 26 24 21 20 20 19 18 17 17 16 15 15 16 18 19 21 21 22 23 24 25 25 25 25 23 23 23 22 20 19 18 17 14 10 10 12 14 10
39 38 35 33 34 42 45 43 42 40 38 37 35 35 35 36 39 41 40 38 37 38 38 37 35 34 33 32 31 30 30 29 27 26 26 25 26 27 26 26 25 25 25 26 28 28 28 27 24 21 20 19 18 18 17 17 16 16 15 15 16 17 19 21 22 22 22 23 25 25 25 25 24 25 24 21 18 18 19 16 10 9 11 11 8
40 38 36 35 34 41 44 42 43 41 38 37 36 36 36 37 40 42 40 38 37 37 38 37 35 32 30 31 31 31 30 28 27 25 24 25 25 24 24 23 22 23 24 25 26 27 28 25 23 21 21 19 17 17 17 17 17 16 16 16 16 16 19 21 21 21 21 23 24 25 25 25 25 24 22 22 20 18 17 15 12 10 10 9 8
41 40 38 37 35 41 44 42 43 41 39 39 37 36 36 38 41 42 40 38 36 36 37 37 34 31 30 31 31 31 30 28 26 23 21 21 22 23 23 22 22 22 23 24 24 25 25 23 21 21 21 19 18 17 18 18 17 17 16 17 17 18 20 21 21 21 21 23 23 24 25 25 25 24 21 23 21 18 17 15 15 13 10 10 11
40 40 40 40 38 41 43 42 42 42 39 39 39 36 36 39 41 42 40 37 34 35 36 36 34 30 30 31 32 31 30 28 25 22 19 21 22 22 22 23 23 21 21 22 22 21 22 22 21 21 20 20 19 18 18 18 18 18 17 17 18 19 20 21 21 21 21 22 23 24 24 23 25 23 20 22 23 20 19 17 17 17 13 12 12
41 40 41 42 41 41 42 41 42 42 40 39 40 38 36 38 41 41 39 37 35 35 36 36 34 31 29 30 31 31 28 27 25 21 20 24 25 24 23 23 22 20 19 20 20 20 21 22 21 20 19 19 19 19 18 18 18 18 18 18 18 19 20 20 21 21 20 21 22 23 23 23 25 22 18 22 24 21 19 17 18 19 17 14 13
41 40 41 43 43 42 42 43 42 42 40 40 40 39 36 37 40 41 39 37 37 36 35 35 33 30 29 30 30 29 27 26 23 20 21 26 26 25 25 24 22 21 19 20 20 20 20 21 21 20 19 19 20 20 21 20 20 19 18 19 19 18 19 19 19 19 19 21 22 22 22 23 23 21 19 22 24 21 19 18 18 17 16 15 15
40 39 40 43 45 43 43 45 45 42 41 41 41 39 37 37 40 42 40 37 37 36 34 34 33 30 29 29 29 28 27 25 23 22 25 27 26 26 26 24 23 22 20 20 21 19 19 20 20 20 20 20 21 22 22 22 21 20 19 20 19 18 18 18 18 19 18 21 23 22 22 21 20 20 21 22 22 21 18 17 17 17 16 16 17
39 39 39 43 46 45 43 46 45 42 41 42 41 41 39 38 41 43 41 39 37 36 35 33 32 31 30 31 30 27 26 25 24 25 27 27 28 26 25 24 23 22 20 19 20 19 18 19 20 20 20 21 22 22 21 20 20 19 18 18 18 17 17 17 18 19 18 19 20 20 20 21 19 19 21 23 23 22 19 17 16 16 18 20 19
39 40 40 43 46 45 44 46 46 44 42 42 42 41 39 39 41 42 41 39 38 36 36 34 31 30 31 32 30 26 25 26 26 28 28 29 29 27 24 24 23 22 20 18 19 18 17 18 19 20 21 21 20 19 18 16 16 15 15 15 14 13 13 15 18 19 18 17 16 16 17 18 19 19 21 24 23 20 18 17 16 15 18 21 19
40 39 39 43 45 44 45 46 46 44 43 43 43 42 41 40 41 43 42 40 39 37 36 33 31 31 33 32 28 26 27 28 28 29 28 28 29 27 25 24 22 21 20 18 18 17 16 17 18 19 19 18 16 15 14 13 13 13 12 11 10 10 12 14 17 19 18 15 15 15 15 16 19 20 22 23 20 17 17 16 14 13 14 17 17
39 38 40 42 42 43 45 45 46 46 45 44 42 41 42 43 42 43 43 41 40 38 35 33 32 33 34 31 27 26 28 28 28 28 28 28 28 27 25 24 21 20 20 18 18 17 16 17 19 19 17 15 13 13 13 13 13 13 12 10 9 10 12 13 15 17 17 15 14 15 16 17 19 20 21 20 17 16 16 13 11 11 11 14 15
38 38 38 38 40 43 45 47 48 48 47 45 42 39 40 42 42 43 43 42 40 38 35 34 34 34 35 31 27 27 27 27 27 27 27 28 27 26 25 24 21 19 17 18 18 17 16 18 21 19 15 13 14 14 14 14 14 13 12 11 10 11 12 12 13 14 15 15 15 14 15 16 18 21 22 19 15 14 13 11 10 11 11 14 17
37 35 35 36 40 45 46 48 48 46 45 42 40 37 37 39 39 39 42 42 39 38 36 35 35 36 35 31 28 28 27 27 28 28 28 27 26 26 26 23 21 19 17 17 19 19 18 20 20 17 15 15 15 14 14 14 14 13 12 11 10 11 13 13 13 14 13 13 14 14 14 13 14 16 17 15 11 10 12 14 14 13 12 15 20
33 32 36 38 40 45 46 46 45 44 42 40 40 39 38 40 37 33 38 42 40 39 38 37 36 35 33 31 29 27 27 27 28 30 30 29 28 28 27 24 22 20 19 18 19 18 19 19 18 16 15 15 15 15 15 15 15 13 12 10 10 12 15 14 13 14 13 13 13 12 11 10 10 11 13 13 12 13 14 15 16 14 12 13 16
30 33 39 40 40 43 43 43 43 42 41 42 42 41 40 42 38 30 33 42 42 40 39 36 35 33 32 33 31 27 26 28 29 29 30 30 30 29 28 26 23 21 19 18 16 15 16 17 16 15 14 15 16 16 16 16 14 13 13 13 13 14 15 14 12 12 13 12 11 9 9 9 9 11 14 15 15 15 13 12 14 13 11 9 10
30 28 35 39 39 40 41 43 43 41 42 43 43 42 42 42 37 31 31 39 41 40 37 34 32 32 32 33 32 28 27 29 30 30 31 31 31 29 28 25 21 18 17 15 13 14 15 14 15 16 15 15 16 16 16 16 13 13 13 14 14 14 14 14 12 11 11 10 8 8 9 9 8 10 14 14 13 13 11 9 11 11 9 8 7
28 23 29 37 40 41 41 43 43 42 43 44 42 41 41 39 38 36 34 35 37 37 34 32 30 30 32 33 32 30 28 29 32 32 32 31 31 29 27 24 20 18 17 15 13 13 13 12 13 15 16 16 17 19 19 17 15 16 15 14 14 15 14 13 12 11 11 10 10 11 10 9 8 9 11 12 11 10 8 8 10 11 10 9 8
29 26 27 31 36 39 39 40 43 43 43 43 42 39 37 36 38 39 35 33 35 34 31 29 28 29 32 32 32 30 28 28 32 32 30 29 30 29 26 25 23 20 19 17 15 12 13 13 13 15 18 19 20 21 20 18 17 18 18 16 13 12 10 9 10 10 11 11 11 11 9 8 8 9 10 11 10 9 9 9 11 11 10 10 10
28 29 28 29 35 38 38 41 44 43 43 43 42 39 37 37 37 37 34 34 34 32 30 28 26 28 30 29 29 29 27 28 31 31 30 29 29 29 27 26 24 22 20 19 16 12 14 16 16 17 19 21 22 21 19 16 16 17 18 15 11 8 4 5 7 7 7 9 8 7 8 8 8 9 10 10 10 10 10 11 12 13 12 11 11
25 30 31 33 39 40 40 42 41 41 42 41 39 37 36 37 37 34 34 33 31 30 30 28 26 27 28 26 27 27 26 28 31 31 31 30 31 30 28 25 23 21 20 19 15 13 16 18 17 18 21 22 21 20 17 13 12 13 12 10 8 5 3 3 3 2 5 7 6 7 8 8 8 9 10 10 11 11 10 10 10 10 8 7 8
24 32 35 36 40 39 38 39 39 39 38 35 34 35 33 35 35 33 33 31 30 30 29 28 27 27 27 27 25 24 24 27 30 30 31 31 31 30 28 25 23 22 21 19 16 17 20 20 17 19 22 21 19 17 13 10 10 9 8 6 4 1 3 5 4 3 4 5 6 7 8 8 9 11 11 11 11 10 9 9 7 6 6 7 9
25 33 38 37 38 38 37 37 37 36 34 31 33 34 32 33 33 32 32 31 30 29 28 28 27 26 26 25 23 22 24 27 30 31 30 30 29 28 27 26 24 23 22 19 17 19 22 21 19 21 22 20 17 14 10 9 9 7 6 7 4 4 8 9 8 6 4 5 6 5 7 9 10 12 11 11 11 10 9 7 4 5 8 9 8
29 32 38 38 38 39 38 38 36 35 34 33 33 34 33 33 33 31 31 30 28 28 28 28 27 26 25 24 24 23 24 27 30 31 30 29 28 27 27 26 24 22 20 19 18 20 22 22 21 23 22 19 17 13 9 9 8 7 9 9 7 9 11 12 11 9 7 7 5 3 2 4 7 9 9 9 9 8 7 6 5 6 8 6 5
34 34 37 39 40 39 37 37 35 35 35 34 34 35 33 33 32 30 29 29 27 27 27 26 26 25 24 24 25 24 24 26 29 29 29 29 27 27 27 26 24 22 19 19 19 20 22 23 23 24 21 19 17 13 10 9 8 10 12 10 10 11 12 12 11 9 7 7 7 7 4 1 2 4 5 6 5 4 4 6 7 5 6 5 4
39 37 36 36 35 35 36 36 35 33 35 34 34 35 34 32 31 28 27 27 26 26 25 25 25 25 24 25 24 23 23 26 27 26 27 26 26 26 26 24 21 20 19 20 20 21 23 23 23 22 19 17 16 13 10 9 10 14 14 11 11 10 10 10 10 9 7 7 8 10 9 6 3 2 4 4 5 5 6 7 7 7 8 6 4
40 40 39 36 34 33 34 36 35 35 36 34 34 34 32 31 30 28 26 26 25 25 24 24 24 23 23 23 21 21 23 24 23 23 24 23 23 22 21 20 20 20 21 22 21 21 22 22 21 19 17 15 13 11 10 11 14 17 16 14 12 9 8 8 10 11 9 7 7 10 12 9 6 5 6 6 6 8 9 9 9 11 10 4 1
35 38 38 35 34 34 34 35 35 35 34 33 33 31 30 30 29 27 26 25 24 24 24 23 23 23 23 23 21 20 22 21 19 21 21 21 21 21 21 21 21 21 22 22 21 21 21 20 18 16 13 13 10 9 11 14 18 19 17 16 16 13 9 7 9 11 11 9 8 10 12 11 9 6 6 7 8 10 11 11 12 12 10 2 1
27 30 32 32 33 33 34 34 33 32 31 31 30 29 28 28 27 25 26 25 23 24 23 23 23 23 22 22 20 19 20 20 19 19 19 18 19 20 21 21 21 20 19 19 20 20 19 18 16 12 10 11 8 8 13 17 20 19 18 19 19 17 14 10 10 11 11 11 9 9 11 12 10 6 5 7 9 11 11 12 12 11 8 3 1
24 24 26 30 31 30 31 31 30 29 28 27 27 27 27 27 27 25 25 25 24 24 23 23 23 22 21 21 21 20 19 19 19 18 18 18 18 19 20 21 20 19 18 18 19 17 17 16 13 9 9 9 7 8 15 19 21 20 21 21 19 17 15 13 12 12 11 12 10 8 9 11 8 6 6 7 9 11 11 11 12 11 10 6 2
26 25 25 28 29 28 28 29 27 26 25 24 25 26 26 26 26 25 25 24 23 23 23 22 21 21 21 21 20 18 18 19 20 18 17 18 18 18 18 18 18 19 18 18 17 16 16 14 10 7 7 8 6 10 16 20 22 22 21 20 19 17 15 13 13 13 14 15 11 7 8 9 7 5 7 7 9 10 9 9 11 11 10 7 4
24 25 26 29 30 29 28 28 27 26 26 25 25 26 26 25 25 25 24 22 21 22 22 22 21 22 22 21 19 18 18 19 19 17 16 16 16 16 15 16 17 18 17 16 17 16 15 12 10 9 8 8 7 10 18 22 23 22 21 20 18 17 16 15 15 15 16 16 10 5 6 8 8 7 7 9 10 10 9 9 9 9 8 6 6
24 25 27 29 29 29 30 29 28 27 28 28 27 28 28 27 25 24 24 23 23 24 24 24 23 23 22 20 18 18 18 17 17 16 16 16 14 13 13 14 16 17 17 15 16 16 14 11 11 11 10 9 8 9 18 24 24 22 22 21 19 18 16 16 16 16 16 14 10 8 7 8 9 8 8 9 10 11 10 9 9 8 8 6 7
27 27 27 28 29 29 29 28 26 25 26 26 27 29 29 28 26 25 24 24 24 25 25 24 23 22 22 21 20 19 18 18 17 16 15 14 12 11 13 14 14 15 15 13 14 16 14 13 13 12 11 11 9 8 13 22 25 23 22 21 21 19 18 17 17 16 14 12 11 11 9 9 8 8 8 9 10 11 11 9 9 10 11 10 8
28 28 28 30 31 31 31 30 27 24 24 24 26 27 27 25 24 23 22 22 23 23 24 23 21 22 23 22 20 19 19 17 16 14 12 10 9 9 12 14 14 15 16 15 15 16 15 14 14 13 12 12 10 9 12 20 24 24 21 21 22 21 19 19 18 17 15 14 13 13 11 10 10 9 10 11 11 12 11 10 12 14 14 13 11
32 31 31 32 33 33 34 33 31 29 27 26 24 23 22 20 20 20 20 20 20 21 22 21 20 19 19 18 18 17 16 14 13 12 10 9 8 8 10 14 17 18 19 19 18 16 15 15 14 12 10 10 10 9 11 17 22 23 22 22 22 22 21 21 20 19 19 18 17 15 13 13 12 12 13 12 11 11 10 11 15 17 14 13 12
35 34 34 34 32 30 30 31 31 31 31 29 26 23 21 19 18 19 19 19 19 20 21 21 19 17 16 16 16 14 13 11 11 11 11 10 9 8 8 13 17 19 18 17 15 15 17 16 13 8 6 5 6 6 6 11 16 19 20 20 20 21 21 21 20 21 22 22 20 18 16 16 16 15 14 13 11 11 11 14 18 15 12 13 13
37 35 35 34 32 28 27 27 26 27 28 27 25 25 24 22 19 17 17 18 19 19 19 18 17 16 15 15 13 12 11 10 9 9 10 10 10 8 8 11 15 17 17 14 14 16 17 13 10 7 5 3 4 5 4 4 8 12 15 16 17 18 19 20 21 23 23 23 21 20 19 19 18 17 15 14 13 12 12 16 18 14 12 14 13
35 35 35 35 33 31 29 27 24 22 23 22 22 23 24 22 19 17 18 19 18 17 17 16 15 14 13 12 12 12 10 8 8 8 9 10 10 11 12 12 13 15 16 15 15 17 15 11 9 8 7 5 6 7 5 3 3 5 9 11 13 14 16 17 21 22 22 21 21 21 20 19 18 18 16 14 14 13 14 17 18 13 11 13 13
Wind_Direction
238 221 213 219 205 196 192 190 190 186 188 188 183 184 183 183 186 191 194 190 185 183 181 183 184 181 181 183 188 192 188 185 189 193 197 201 200 204 212 216 213 205 201 207 204 194 184 175 191 213 218 219 221 218 217 222 218 214 226 236 235 231 232 220 208 219 231 229 235 242 250 250 248 248 235 220 195 199 246 252 240 221 216 219 238
238 224 208 214 208 195 191 189 190 186 185 185 182 183 186 185 185 189 193 190 188 186 183 185 186 185 184 184 187 192 188 184 189 195 199 201 201 207 216 216 212 204 201 203 202 195 182 174 192 210 215 221 224 222 220 215 213 220 226 232 233 228 233 227 214 215 226 234 241 244 245 240 244 243 229 221 189 186 246 251 223 210 204 213 227
236 228 205 208 197 184 185 186 188 187 182 183 184 184 185 186 186 190 193 191 190 189 186 186 187 187 186 185 187 191 189 185 187 193 199 205 207 209 212 210 207 205 204 203 202 196 182 175 194 210 212 218 217 220 225 216 208 221 232 233 230 225 230 230 220 217 222 234 241 235 234 233 241 242 232 224 189 184 227 234 218 215 207 214 218
232 230 208 209 190 176 182 182 182 184 183 185 186 185 184 185 188 191 194 192 190 189 188 187 185 185 186 186 188 190 190 187 186 189 197 206 206 202 204 208 210 208 204 202 201 197 184 179 194 210 212 211 212 219 226 218 207 214 227 231 227 224 229 232 225 224 225 226 227 223 228 229 235 246 237 225 204 195 209 214 216 226 217 216 213
229 228 210 212 197 179 184 184 183 184 185 187 187 187 187 186 189 193 195 193 191 190 188 186 184 183 184 185 186 188 188 184 183 188 195 202 201 196 201 208 210 209 205 201 199 198 189 182 193 209 212 204 207 218 223 218 212 216 221 222 223 222 226 230 227 228 227 224 225 221 220 221 228 240 228 222 224 214 212 215 218 226 221 217 209
231 227 208 208 199 183 185 188 189 188 187 189 189 189 188 187 190 194 196 195 192 191 188 185 185 183 183 183 184 183 183 183 185 191 195 199 200 198 203 209 209 206 203 198 197 199 195 188 192 204 210 202 202 213 219 213 212 218 224 227 224 217 218 224 226 233 233 230 230 223 217 218 218 226 218 215 229 226 223 224 218 218 220 218 211
240 232 206 204 199 181 182 188 192 192 190 191 190 188 187 187 190 193 196 195 192 189 187 186 187 185 184 185 184 181 180 183 187 193 195 199 204 204 206 209 209 204 199 198 197 200 201 195 193 199 208 207 201 210 216 212 212 212 217 235 241 225 220 223 225 236 240 238 235 230 227 226 210 212 219 212 218 223 225 229 224 220 219 217 212
244 241 207 200 199 182 180 188 192 195 194 192 189 187 187 187 191 194 195 194 192 189 186 188 189 187 185 186 185 183 184 186 189 195 197 200 206 206 206 208 207 199 196 199 199 203 208 199 193 197 207 213 208 211 213 211 218 214 207 220 237 238 231 229 229 236 242 242 240 235 234 235 228 225 227 218 218 226 230 233 232 228 223 213 204
239 243 215 197 194 185 187 196 195 194 194 191 189 188 189 190 193 195 194 194 194 189 186 188 189 187 185 185 185 183 187 191 191 196 199 200 204 205 207 210 205 195 194 199 200 205 210 202 197 198 202 209 212 215 215 211 218 222 212 209 219 233 236 234 234 238 244 247 247 242 239 240 239 238 238 231 225 229 237 239 237 235 232 220 207
233 240 230 202 188 182 189 196 192 190 191 189 189 190 192 193 194 194 192 193 191 187 186 187 187 187 186 186 186 182 188 194 193 196 198 197 199 202 207 209 201 194 196 198 198 204 210 207 202 200 201 206 212 217 218 218 220 224 221 213 215 222 229 232 233 237 244 248 249 248 244 241 239 238 239 238 232 230 236 247 247 244 240 230 216
226 235 234 207 186 178 182 187 186 187 189 189 190 192 192 194 194 191 189 190 189 187 188 187 186 188 188 186 185 182 188 194 192 194 196 194 197 201 205 203 196 193 197 198 198 201 209 213 207 204 205 207 213 218 219 223 226 227 225 221 222 225 228 232 233 235 241 245 246 246 244 243 242 241 241 242 238 232 232 243 252 252 246 234 218
220 229 229 204 184 177 180 186 186 186 188 188 189 191 192 192 191 188 187 187 187 187 188 187 186 190 190 187 185 183 188 194 191 191 194 194 197 200 199 197 194 194 198 202 201 199 206 215 210 206 208 209 215 221 223 226 227 230 229 226 231 235 236 237 235 235 239 242 244 243 241 240 241 243 242 240 236 230 226 226 245 253 233 219 210
218 224 220 199 183 177 180 185 186 186 187 187 187 190 191 190 189 187 186 186 186 186 187 188 189 190 189 188 186 184 188 194 192 191 193 192 196 198 194 194 196 198 203 208 206 199 202 212 211 206 208 211 216 220 222 227 228 231 234 234 239 242 242 241 240 240 241 243 244 244 242 240 241 243 241 239 232 226 222 213 232 245 211 206 215
218 220 212 198 185 177 179 182 182 183 184 185 187 189 189 189 188 188 187 186 187 188 188 189 189 187 186 186 186 186 190 195 192 188 188 189 196 199 194 195 200 204 209 211 206 198 199 209 212 207 208 212 217 220 222 227 230 232 232 235 242 245 245 244 243 244 243 244 247 248 246 245 248 248 245 243 234 226 225 211 215 226 199 208 236
214 215 207 198 186 178 179 180 179 180 180 183 188 189 189 189 189 188 186 185 187 188 188 188 185 184 184 184 187 189 190 192 190 185 184 190 198 199 195 197 202 209 212 209 205 200 199 207 210 209 211 214 217 222 224 225 230 232 229 231 238 241 244 244 245 246 244 248 252 252 251 250 251 248 242 243 237 229 231 217 210 220 207 218 235
211 210 201 195 188 182 180 178 179 180 178 182 187 187 189 190 188 188 186 184 186 187 186 185 183 183 186 186 188 190 187 186 185 182 185 195 200 198 197 199 204 211 212 205 203 203 202 205 209 210 213 215 218 222 225 227 231 235 233 235 239 239 241 245 247 246 246 251 254 256 256 252 251 245 236 244 243 232 237 226 210 217 216 214 216
209 207 196 190 189 185 181 179 181 182 180 183 186 187 189 190 188 187 185 183 186 186 184 183 183 185 187 187 189 187 183 180 180 180 188 196 198 200 200 201 204 209 207 201 200 202 203 206 210 212 213 215 219 223 227 229 232 237 238 238 243 244 244 248 251 251 252 255 257 259 261 257 254 245 234 244 245 234 239 233 214 214 217 217 216
207 205 192 187 188 187 183 181 183 185 184 185 188 188 189 190 189 187 184 182 185 186 184 182 183 185 186 188 187 184 179 179 179 184 192 191 191 197 199 198 198 199 198 196 199 201 204 207 210 213 214 215 218 224 229 231 232 235 238 238 243 247 247 251 254 254 257 261 260 260 262 262 259 250 243 252 250 238 238 235 221 216 218 225 229
204 200 187 184 187 189 185 182 183 185 186 187 189 189 189 190 190 189 185 183 186 187 183 182 183 183 185 186 183 179 177 177 179 190 195 188 186 189 191 191 192 193 194 195 199 203 204 206 208 210 214 215 218 224 229 232 233 234 237 240 241 245 250 253 256 255 255 261 262 258 258 259 256 250 250 255 252 242 236 230 224 217 214 224 232
199 195 185 182 186 190 188 185 185 187 188 189 189 189 189 190 190 189 187 185 187 186 181 181 182 182 184 181 176 175 175 173 178 189 190 185 185 185 185 188 188 189 194 197 200 204 204 206 208 212 216 219 221 227 231 235 238 239 241 241 239 242 250 255 259 258 256 258 259 258 258 257 254 250 248 248 246 239 233 229 225 217 212 219 224
194 190 185 181 184 190 188 186 188 189 189 189 188 189 191 191 189 187 186 185 186 184 181 181 182 184 183 176 173 173 172 172 181 189 187 183 186 187 184 186 187 187 192 197 200 205 208 209 211 215 221 226 229 235 238 238 241 244 245 244 240 240 246 255 261 261 259 258 256 254 253 251 246 239 236 239 239 233 229 230 227 218 217 221 220
188 188 185 181 183 188 184 182 185 187 188 188 188 190 190 190 188 186 184 185 186 183 181 181 183 185 180 173 174 176 174 179 187 190 187 184 185 187 186 187 188 190 191 196 201 205 209 212 214 219 226 233 237 242 245 244 244 248 251 251 250 245 245 254 262 263 261 257 252 250 244 235 228 225 226 233 235 228 226 232 234 228 224 224 222
186 188 184 179 183 186 181 178 179 182 187 189 189 190 189 188 187 185 183 185 186 183 181 181 183 184 177 173 178 180 178 183 189 189 187 186 186 186 188 189 190 193 194 197 202 203 206 214 221 227 230 235 239 241 246 250 252 255 257 259 262 257 251 256 264 267 266 258 252 252 246 231 225 224 224 230 233 228 226 232 240 240 232 226 219
187 186 180 179 182 181 176 176 178 181 185 186 186 187 188 188 186 184 184 185 185 183 181 181 183 182 175 175 183 182 181 185 188 189 189 187 186 185 187 190 191 195 198 198 202 204 205 214 225 231 233 236 238 236 240 246 251 256 258 256 257 259 261 263 264 264 268 270 264 255 247 235 229 226 224 229 235 232 229 231 236 237 229 216 203
185 181 174 174 176 175 175 175 177 181 182 184 186 186 187 185 182 182 184 185 184 182 181 181 183 180 173 177 186 184 184 188 187 189 191 189 187 185 188 190 189 194 200 201 203 202 202 214 225 229 230 234 238 236 237 243 248 250 250 247 247 255 262 264 260 260 267 275 274 264 248 235 233 234 231 234 237 230 224 218 214 215 211 201 195
180 172 164 165 169 173 176 177 179 182 182 184 186 188 190 188 184 183 183 183 181 179 180 181 180 178 174 177 186 185 186 189 188 189 191 191 189 187 189 193 192 197 203 203 202 198 202 216 227 229 225 228 235 236 236 241 246 247 248 248 245 249 254 254 256 260 265 269 276 276 260 244 247 247 237 232 230 225 221 209 195 195 198 199 198
168 157 154 160 167 171 174 177 178 181 182 184 186 188 189 188 191 194 186 182 180 178 178 179 180 180 178 179 186 187 186 188 188 189 189 190 192 191 193 197 197 198 200 200 202 204 208 215 223 227 223 223 230 234 235 239 241 241 245 247 242 245 251 255 256 258 262 267 272 276 268 257 256 244 229 221 215 216 219 206 196 199 204 203 204
144 146 154 160 165 169 173 175 176 180 181 183 186 187 185 186 197 208 192 180 178 176 176 179 181 183 182 181 185 188 187 186 188 190 189 191 195 196 196 196 195 194 197 201 208 217 220 215 217 225 224 221 225 231 236 240 238 237 240 241 238 242 248 254 257 258 264 270 267 265 267 262 249 228 221 219 214 218 222 208 199 203 205 209 213
128 139 151 157 163 168 172 175 179 183 183 183 183 183 184 186 195 206 193 179 175 172 173 177 181 183 182 182 184 187 186 185 187 189 190 192 196 195 194 194 192 191 196 205 214 225 231 222 213 222 227 224 226 229 234 238 235 234 239 239 240 246 250 251 256 260 266 269 258 250 255 252 237 219 216 218 222 226 225 203 190 191 190 197 208
131 139 148 157 165 169 170 175 179 181 182 183 181 181 185 185 187 195 193 182 173 169 171 177 180 183 183 182 183 184 184 185 188 191 192 193 195 194 195 194 190 188 194 207 217 226 238 233 217 221 226 226 227 230 232 233 232 235 241 244 246 253 256 254 256 262 265 259 246 243 246 238 221 211 212 220 225 220 206 184 181 188 186 181 192
143 149 150 156 164 167 170 174 177 178 179 179 176 179 182 179 183 194 194 181 170 167 171 176 179 183 184 183 182 181 184 187 189 191 192 193 194 194 193 192 189 191 196 201 207 216 233 236 226 224 228 229 233 234 233 232 230 235 244 251 257 265 264 253 253 258 255 246 238 234 230 221 213 208 206 210 211 200 190 182 181 191 194 186 192
149 155 153 156 163 169 173 173 174 177 176 172 172 176 176 176 188 197 188 174 168 168 171 174 177 179 180 179 179 180 185 189 189 192 193 193 194 194 194 193 192 194 197 198 201 214 234 237 231 230 234 236 238 240 238 232 227 232 243 252 265 278 271 246 252 250 228 222 223 211 201 203 208 207 201 199 200 196 194 194 193 197 198 192 191
156 162 162 167 171 172 172 170 171 173 172 170 172 173 176 187 197 191 174 167 167 167 169 172 174 173 171 173 176 179 186 189 189 191 191 191 192 193 195 199 199 199 202 204 208 219 232 236 234 236 240 241 242 244 244 233 222 227 238 246 262 273 237 215 233 206 181 191 188 173 180 194 200 202 202 201 203 202 202 210 217 216 209 205 206
160 164 166 170 169 167 168 166 167 168 168 170 170 170 180 195 193 176 165 163 164 164 166 170 172 172 170 172 176 180 186 189 187 187 189 191 191 191 194 199 201 206 210 212 215 221 228 233 234 235 239 242 243 246 244 228 219 225 223 218 235 245 139 144 144 140 164 173 165 170 188 195 197 203 208 209 211 211 211 217 233 249 248 237 227
156 162 166 165 162 162 163 163 164 165 165 167 169 174 187 189 175 164 161 161 162 164 165 167 170 171 172 172 176 183 186 186 187 187 189 191 191 189 191 194 199 210 217 217 220 224 226 228 227 229 237 241 242 245 242 223 218 214 192 183 174 126 127 140 149 157 165 160 160 186 206 208 210 213 215 215 217 218 219 219 223 241 248 245 238
156 162 163 161 161 161 160 162 166 166 165 168 174 183 187 175 162 159 160 158 161 163 165 167 168 171 174 172 176 186 188 186 189 190 189 191 190 189 191 194 199 207 214 217 220 223 223 221 221 228 236 238 239 245 241 225 212 187 170 164 146 135 141 153 163 170 176 177 168 158 189 215 215 210 208 211 216 219 217 202 193 223 247 256 250
155 160 161 161 160 155 154 161 168 167 169 176 181 181 174 162 156 157 156 156 160 161 164 168 167 170 175 173 176 186 188 185 188 191 191 191 191 190 192 195 197 202 211 218 219 220 220 218 221 229 233 235 244 251 238 220 196 166 160 154 142 146 156 164 173 178 182 183 158 122 114 169 191 175 184 201 211 205 165 148 160 209 255 270 265
152 155 157 160 159 151 151 161 168 171 177 183 179 169 160 155 155 155 155 157 159 160 163 165 165 170 175 174 177 185 188 186 188 191 193 192 190 191 193 196 201 209 214 213 211 214 217 218 222 228 232 240 251 246 222 203 178 160 157 150 146 159 168 171 178 182 180 177 157 145 161 196 218 178 182 199 197 170 138 128 148 204 248 273 275
153 154 153 157 161 154 155 166 174 179 180 177 167 159 155 153 153 152 154 156 158 160 163 163 165 169 173 175 179 182 183 185 186 190 195 196 195 197 201 203 207 210 206 203 205 210 214 218 223 227 236 252 252 225 199 186 171 163 159 153 155 171 180 173 176 181 182 183 177 173 185 209 227 203 190 198 186 164 152 148 170 210 237 261 247
145 150 152 155 157 155 160 171 176 174 169 162 156 154 153 152 153 155 156 157 159 161 163 164 165 168 171 175 178 177 176 179 181 185 190 194 196 201 204 203 202 200 198 199 204 208 210 215 220 226 247 264 249 203 185 179 172 168 165 162 163 171 178 175 175 183 192 200 205 209 213 220 221 203 189 193 180 167 165 168 183 212 232 256 62
131 141 147 149 152 158 164 167 164 158 154 153 151 150 149 150 152 154 155 157 159 160 162 163 162 164 169 170 171 171 169 170 177 182 184 185 191 197 196 192 191 191 191 195 201 206 209 212 213 223 252 267 247 193 179 177 173 169 167 168 170 171 173 174 172 182 204 217 220 231 229 218 212 201 187 184 178 174 178 179 183 202 221 246 55
131 138 146 150 154 159 158 153 149 147 147 148 148 148 149 150 151 153 156 159 159 159 161 162 160 164 167 166 169 174 171 169 176 184 185 184 189 196 195 192 191 191 189 193 199 202 202 203 208 222 246 261 246 189 177 177 176 172 170 174 178 177 175 176 169 171 203 227 235 248 234 213 203 192 177 176 180 184 186 180 181 198 221 236 131
123 129 139 145 147 148 144 141 142 142 142 145 146 146 148 150 150 152 156 158 158 158 158 158 158 162 165 166 171 175 172 171 176 184 189 189 192 197 198 197 197 194 191 193 198 198 194 194 203 212 231 257 242 183 176 178 176 174 174 178 184 184 181 181 173 175 204 225 237 255 235 207 194 183 172 171 178 183 185 184 186 197 214 222 154
110 118 130 135 138 140 138 138 140 141 142 145 144 142 144 147 148 150 152 153 154 156 156 156 157 160 163 166 168 167 166 170 178 185 189 189 191 196 199 200 198 195 195 198 200 199 193 192 198 196 209 250 246 186 178 180 178 178 182 185 189 189 188 187 184 190 211 224 233 262 240 202 188 183 175 171 174 178 183 191 195 195 200 203 159
108 116 125 128 131 134 135 134 136 141 144 146 146 145 144 144 145 149 153 155 156 157 158 157 157 159 161 161 160 162 166 171 179 188 193 194 196 197 196 194 193 196 202 202 197 194 194 201 208 203 207 237 251 207 188 186 182 184 189 193 195 195 193 194 193 200 215 226 234 250 240 205 193 192 183 177 178 177 180 189 194 186 174 159 138
102 108 116 119 121 123 125 124 126 135 141 143 148 149 145 145 149 152 156 158 156 155 157 157 156 156 157 158 161 166 172 175 180 189 199 208 213 207 194 190 191 196 201 199 190 190 200 208 208 204 208 225 247 243 208 195 190 192 198 202 203 202 201 202 202 205 213 220 225 231 227 214 212 207 193 188 183 176 175 180 176 160 144 138 143
90 95 105 112 111 109 111 111 111 120 131 138 145 146 140 138 141 144 149 154 154 153 155 156 155 157 160 164 168 171 173 175 179 185 190 193 200 201 195 196 203 203 201 199 194 193 200 206 203 203 213 224 238 247 222 204 199 199 202 206 208 208 209 209 207 209 216 224 228 225 219 220 227 221 205 198 191 185 187 182 165 153 145 150 164
77 79 87 95 95 93 97 99 97 101 112 118 124 129 129 128 129 131 139 146 150 155 159 159 160 163 164 166 170 172 175 178 180 185 189 188 196 206 203 204 206 202 197 198 196 191 196 201 200 203 217 230 245 249 224 208 207 207 206 207 209 211 214 215 214 216 222 229 232 230 226 229 231 224 213 205 199 198 193 171 159 158 158 158 162
73 72 74 79 82 83 87 89 88 95 104 104 100 104 113 121 126 132 141 146 147 150 154 156 160 165 166 169 173 178 185 188 188 196 202 204 210 221 215 206 204 199 198 200 198 193 197 196 190 193 213 241 269 275 235 206 209 213 215 215 214 214 218 221 222 224 227 230 233 234 234 232 228 220 213 208 204 199 182 162 159 165 166 159 158
76 75 74 77 79 81 83 85 86 93 103 103 99 100 105 111 118 130 142 148 149 150 150 152 158 164 171 178 183 186 187 188 192 201 204 200 198 200 202 203 202 203 205 206 199 196 196 190 181 189 205 219 250 269 258 197 192 205 215 217 214 216 222 228 230 231 232 232 234 238 237 232 228 224 218 212 206 200 183 169 165 164 162 160 162
76 76 75 76 78 77 77 80 84 91 98 102 103 104 106 109 116 126 135 139 145 150 150 149 155 165 177 186 186 181 176 174 179 191 197 194 187 182 183 189 196 202 205 202 198 198 199 196 194 202 213 221 226 233 238 218 175 186 202 208 210 214 223 232 238 239 239 237 237 238 233 226 225 224 220 212 204 196 183 172 164 155 154 164 171